Analise da corrida

Novo Tópico   Responder ao tópico

 :: S54

Ver o tópico anterior Ver o tópico seguinte Ir em baixo

Analise da corrida

Mensagem por Gabriel Miranda em Ter Ago 02, 2016 10:51 pm

Laguna Seca (United States), Época 54


Volta Tempo volta Pos Pneus Tempo Temp (°) Hum (%) Ocorrências
0 - 22 Duros Nublado 34 51 -
1 1:30.415 22 Duros Nublado 34 51 -
2 1:17.878 20 Duros Nublado 34 51 -
3 1:18.791 20 Duros Nublado 34 51 -
4 1:18.025 20 Duros Nublado 34 51 -
5 1:18.089 20 Duros Nublado 34 51 -
6 1:18.248 20 Duros Nublado 34 51 -
7 1:18.398 20 Duros Nublado 35 51 -

9 1:18.189 20 Duros Nublado 36 51 -
10 1:18.506 20 Duros Nublado 36 51 -
11 1:18.393 21 Duros Nublado 37 51 -
12 1:18.425 21 Duros Nublado 37 50 -
13 1:18.567 21 Duros Nublado 38 50 -
14 1:18.238 20 Duros Nublado 38 50 -
15 1:17.586 19 Duros Nublado 38 50 -
16 1:17.932 18 Duros Nublado 37 50 -
17 1:17.775 16 Duros Nublado 36 50 -
18 1:17.132 16 Duros Nublado 35 50 -
19 1:17.798 16 Duros Nublado 35 50 -
20 1:17.034 14 Duros Nublado 35 50 -
21 1:17.186 14 Duros Nublado 35 50 -
22 1:17.589 13 Duros Nublado 35 50 -
23 1:16.339 11 Duros Nublado 35 50 -
24 1:16.140 11 Duros Nublado 35 50 -
25 1:15.034 11 Duros Nublado 35 50 -
26 1:24.687 13 Duros Nublado 35 51 Pit
27 1:48.118 20 Duros Nublado 35 51 -
28 1:18.238 18 Duros Nublado 35 51 -
29 1:18.092 17 Duros Nublado 35 51 -
30 1:17.194 15 Duros Nublado 35 51 -
31 1:17.629 14 Duros Nublado 34 51 -
32 1:17.134 14 Duros Nublado 34 51 -
33 1:17.745 14 Duros Nublado 33 51 -
34 1:16.918 14 Duros Nublado 33 51 -
35 1:17.424 13 Duros Nublado 33 51 -
36 1:17.496 12 Duros Nublado 33 51 -
37 1:16.996 12 Duros Nublado 33 51 -
38 1:17.493 12 Duros Nublado 33 51 -
39 1:16.581 12 Duros Nublado 33 51 -
40 1:17.115 12 Duros Nublado 33 51 -
41 1:17.448 12 Duros Nublado 33 51 -
42 1:16.613 11 Duros Parcial/nublado 33 51 -
43 1:17.195 11 Duros Parcial/nublado 33 51 -
44 1:17.123 11 Duros Parcial/nublado 33 51 -
45 1:17.281 11 Duros Parcial/nublado 34 51 -
46 1:16.662 11 Duros Parcial/nublado 35 51 -
47 1:17.141 11 Duros Parcial/nublado 35 51 -
48 1:15.942 11 Duros Parcial/nublado 35 51 -
49 1:16.024 11 Duros Parcial/nublado 35 51 -
50 1:15.368 11 Duros Parcial/nublado 35 51 -
51 1:16.753 11 Duros Parcial/nublado 35 51 -
52 1:24.264 11 Duros Parcial/nublado 35 51 Pit
53 1:48.535 13 Duros Parcial/nublado 35 51 -
54 1:17.961 13 Duros Parcial/nublado 35 51 -
55 1:17.348 12 Duros Parcial/nublado 35 51 -
56 1:17.647 12 Duros Nublado 35 51 -
57 1:18.131 11 Duros Nublado 35 51 -
58 1:17.118 11 Duros Nublado 35 51 -
59 1:17.647 11 Duros Nublado 35 51 -
60 1:17.798 11 Duros Nublado 35 51 -
61 1:17.407 11 Duros Nublado 35 51 -
62 1:17.307 11 Duros Nublado 35 51 -
63 1:17.878 11 Duros Nublado 34 51 -
64 1:22.637 14 Duros Nublado 34 51 Erro do Piloto
65 1:17.184 14 Duros Nublado 34 51 -
66 1:17.948 14 Duros Nublado 33 51 -
67 1:17.045 14 Duros Nublado 33 51 -
68 1:17.509 14 Duros Nublado 32 51 -
69 1:17.184 14 Duros Nublado 31 51 -
70 1:16.777 13 Duros Nublado 32 51 -
71 1:16.686 12 Duros Nublado 32 51 -
72 1:16.980 11 Duros Nublado 32 51 -
73 1:17.386 11 Duros Nublado 32 51 -
74 1:18.673 12 Duros Nublado 32 51 Problema no carro
75 1:18.610 12 Duros Nublado 33 51 Problema no carro
76 1:19.023 12 Duros Nublado 33 51 Problema no carro
77 1:18.634 12 Duros Nublado 33 51 Problema no carro
78 1:18.708 12 Duros Nublado 33 51 Problema no carro
79 1:19.212 12 Duros Nublado 33 51 Problema no carro


Riscos usados:
Ultrapassagem Defesa Pista Livre e Seca Pista Livre e Chuva Avaria
0 0 100 0 0

Afinação usada:
Asa Dianteira Asa Traseira Motor Travões Caixa Suspensão
455 603 450 614 418 75

Cha Mot ADiant ATras Carroç Later Refrig Caixa Trav Susp Elec
Nível das peças: 5 5 5 5 5 5 5 5 5 5 5
Desgaste das Peças (no início) (%): 32 0 26 28 48 21 22 37 49 30 59
Desgaste das Peças (no final) (%): 58 34 48 43 62 35 43 70 85 59 67

Combustível inicíal (litros): 74

Pit Razão da paragem Estado pneus (%) Combust. restante (%) Reabast. até (litros) Tempo da paragem (seg)
Paragem 1 (Volta 26): Não havia mais combustível 18 1 74 litros 21.560
Paragem 2 (Volta 52): Não havia mais combustível 19 1 77 litros 21.330


Problemas técnicos
Volta 74 Os travões partiram-se e deixaram de funcionar

Estado dos pneus após o final (%): 23

Combustível restante no final (litros): 2
avatar
Gabriel Miranda

Mensagens : 899
Data de inscrição : 29/12/2014
Idade : 44

Ver perfil do usuário

Voltar ao Topo Ir em baixo

Re: Analise da corrida

Mensagem por Paulo Coutinho em Qua Ago 03, 2016 8:46 am

Laguna Seca (United States), Season 54


Lap Lap time Pos Tyres Weather Temp (°) Hum (%) Events
0 - 8 Hard Cloudy 34 51 -
1 1:26.180 12 Hard Cloudy 34 51 -
2 1:19.625 14 Hard Cloudy 34 51 -
3 1:19.199 15 Hard Cloudy 34 51 -
4 1:19.025 16 Hard Cloudy 34 51 -
5 1:18.815 16 Hard Cloudy 34 51 -
6 1:18.909 16 Hard Cloudy 34 51 -
7 1:19.004 16 Hard Cloudy 35 51 -
8 1:18.878 16 Hard Cloudy 36 51 -
9 1:18.815 16 Hard Cloudy 36 51 -
10 1:18.691 16 Hard Cloudy 36 51 -
11 1:18.726 16 Hard Cloudy 37 51 -
12 1:18.735 16 Hard Cloudy 37 50 -
13 1:18.704 16 Hard Cloudy 38 50 -
14 1:18.870 16 Hard Cloudy 38 50 -
15 1:18.912 16 Hard Cloudy 38 50 -
16 1:18.829 16 Hard Cloudy 37 50 -
17 1:18.366 16 Hard Cloudy 36 50 -
18 1:18.477 16 Hard Cloudy 35 50 -
19 1:18.696 15 Hard Cloudy 35 50 -
20 1:18.633 15 Hard Cloudy 35 50 -
21 1:18.543 14 Hard Cloudy 35 50 -
22 1:18.247 14 Hard Cloudy 35 50 -
23 1:18.285 14 Hard Cloudy 35 50 -
24 1:18.518 14 Hard Cloudy 35 50 -
25 1:18.164 14 Hard Cloudy 35 50 -
26 1:18.377 13 Hard Cloudy 35 51 -
27 1:18.230 9 Hard Cloudy 35 51 -
28 1:18.440 8 Hard Cloudy 35 51 -
29 1:18.285 6 Hard Cloudy 35 51 -
30 1:18.237 4 Hard Cloudy 35 51 -
31 1:18.262 4 Hard Cloudy 34 51 -
32 1:18.021 4 Hard Cloudy 34 51 -
33 1:18.134 4 Hard Cloudy 33 51 -
34 1:25.113 9 Hard Cloudy 33 51 Driver mistake
35 1:18.133 9 Hard Cloudy 33 51 -
36 1:17.658 9 Hard Cloudy 33 51 -
37 1:17.643 9 Hard Cloudy 33 51 -
38 1:17.670 9 Hard Cloudy 33 51 -
39 1:17.845 10 Hard Cloudy 33 51 -
40 1:17.774 10 Hard Cloudy 33 51 -
41 1:26.081 10 Hard Cloudy 33 51 Pit
42 1:58.766 19 Hard Partially Cloudy 33 51 -
43 1:19.474 18 Hard Partially Cloudy 33 51 -
44 1:19.126 18 Hard Partially Cloudy 33 51 -
45 1:19.212 18 Hard Partially Cloudy 34 51 -
46 1:18.972 18 Hard Partially Cloudy 35 51 -
47 1:19.147 18 Hard Partially Cloudy 35 51 -
48 1:18.865 18 Hard Partially Cloudy 35 51 -
49 1:18.979 18 Hard Partially Cloudy 35 51 -
50 1:21.422 18 Hard Partially Cloudy 35 51 Car problem
51 1:21.394 19 Hard Partially Cloudy 35 51 Car problem
52 1:21.543 19 Hard Partially Cloudy 35 51 Car problem
53 1:21.511 18 Hard Partially Cloudy 35 51 Car problem
54 1:21.601 18 Hard Partially Cloudy 35 51 Car problem
55 1:21.363 18 Hard Partially Cloudy 35 51 Car problem
56 1:21.445 20 Hard Cloudy 35 51 Car problem
57 1:21.346 20 Hard Cloudy 35 51 Car problem
58 1:21.533 20 Hard Cloudy 35 51 Car problem
59 1:21.367 21 Hard Cloudy 35 51 Car problem
60 1:21.500 20 Hard Cloudy 35 51 Car problem
61 1:21.375 21 Hard Cloudy 35 51 Car problem
62 1:21.725 21 Hard Cloudy 35 51 Car problem
63 1:21.712 21 Hard Cloudy 34 51 Car problem
64 1:21.463 21 Hard Cloudy 34 51 Car problem
65 1:21.357 21 Hard Cloudy 34 51 Car problem
66 1:21.630 21 Hard Cloudy 33 51 Car problem
67 1:24.614 21 Hard Cloudy 33 51 Driver mistake, Car problem
68 1:21.686 21 Hard Cloudy 32 51 Car problem
69 1:21.590 21 Hard Cloudy 31 51 Car problem
70 1:21.817 21 Hard Cloudy 32 51 Car problem
71 - 31 Hard Cloudy 32 51 Dropped out
72 - 34 Hard Cloudy 32 51 Dropped out
73 - 34 Hard Cloudy 32 51 Dropped out
74 - 35 Hard Cloudy 32 51 Dropped out
75 - 35 Hard Cloudy 33 51 Dropped out
76 - 35 Hard Cloudy 33 51 Dropped out
77 - 35 Hard Cloudy 33 51 Dropped out
78 - 35 Hard Cloudy 33 51 Dropped out
79 - 35 Hard Cloudy 33 51 Dropped out


Risks used:
Overtake Defend Clear & dry Clear & wet Malfunct
50 0 0 0 0

Setup used:
Front wing Rear wing Engine Brakes Gear Suspension
437 737 426 671 576 119

Cha Eng FWing RWing Underb Sidep Cool Gear Bra Susp Elec
Car parts level: 6 3 5 5 6 8 8 4 6 6 7
Car parts wear (at the start) (%): 76 84 82 84 84 68 62 84 84 84 42
Car parts wear (at the finish) (%): 90 99 94 92 91 75 73 99 99 99 45

Start fuel (liters): 112

Pit Pitstop reason Tyres condition (%) Fuel left (%) Refilled to (liters) Pit time (sec)
Stop 1 (Lap 41): No more fuel was left 22 0 115 liters 30.165


Technical problems
Lap 50 The brakes broke and stopped functioning

avatar
Paulo Coutinho

Mensagens : 1700
Data de inscrição : 31/03/2015
Idade : 44

Ver perfil do usuário

Voltar ao Topo Ir em baixo

Re: Analise da corrida

Mensagem por Marco Duarte em Sex Ago 05, 2016 12:46 pm

Laguna Seca (Estados Unidos da América) - Época 54 - Corrida 6

Volta Tempo de volta Pos Pneus Tempo Temp Hum Eventos
0 - 11 Médios Nublado 34° 51% -
1 1:26.097 11 Médios Nublado 34° 51% -
2 1:20.097 13 Médios Nublado 34° 51% -
3 1:18.936 14 Médios Nublado 34° 51% -
4 1:17.960 13 Médios Nublado 34° 51% -
5 1:17.470 13 Médios Nublado 34° 51% -
6 1:17.939 13 Médios Nublado 34° 51% -
7 1:18.049 13 Médios Nublado 35° 51% -
8 1:17.930 12 Médios Nublado 36° 51% -
9 1:17.603 12 Médios Nublado 36° 51% -
10 1:17.968 12 Médios Nublado 36° 51% -
11 1:18.418 12 Médios Nublado 37° 51% -
12 1:17.490 12 Médios Nublado 37° 50% -
13 1:17.135 12 Médios Nublado 38° 50% -
14 1:17.261 12 Médios Nublado 38° 50% -
15 1:18.462 11 Médios Nublado 38° 50% -
16 1:17.642 11 Médios Nublado 37° 50% -
17 1:18.393 10 Médios Nublado 36° 50% -
18 1:17.454 9 Médios Nublado 35° 50% -
19 1:17.791 9 Médios Nublado 35° 50% -
20 1:17.657 9 Médios Nublado 35° 50% -
21 1:17.207 9 Médios Nublado 35° 50% -
22 1:17.092 9 Médios Nublado 35° 50% -
23 1:16.719 9 Médios Nublado 35° 50% -
24 1:17.272 9 Médios Nublado 35° 50% -
25 1:16.725 9 Médios Nublado 35° 50% -
26 1:25.260 8 Médios Nublado 35° 51% Pit
27 1:50.429 14 Médios Nublado 35° 51% -
28 1:18.683 12 Médios Nublado 35° 51% -
29 1:21.530 13 Médios Nublado 35° 51% Erro do Piloto
30 1:16.775 13 Médios Nublado 35° 51% -
31 1:17.275 11 Médios Nublado 34° 51% -
32 1:17.333 10 Médios Nublado 34° 51% -
33 1:17.532 10 Médios Nublado 33° 51% -
34 1:17.213 10 Médios Nublado 33° 51% -
35 1:17.414 10 Médios Nublado 33° 51% -
36 1:17.594 10 Médios Nublado 33° 51% -
37 1:18.321 11 Médios Nublado 33° 51% -
38 1:17.982 11 Médios Nublado 33° 51% -
39 1:17.897 11 Médios Nublado 33° 51% -
40 1:17.505 10 Médios Nublado 33° 51% -
41 1:18.682 9 Médios Nublado 33° 51% -
42 1:17.342 7 Médios Parcial/nublado 33° 51% -
43 1:17.476 7 Médios Parcial/nublado 33° 51% -
44 1:17.583 7 Médios Parcial/nublado 33° 51% -
45 1:17.190 7 Médios Parcial/nublado 34° 51% -
46 1:17.228 7 Médios Parcial/nublado 35° 51% -
47 1:16.898 7 Médios Parcial/nublado 35° 51% -
48 1:17.202 7 Médios Parcial/nublado 35° 51% -
49 1:17.303 7 Médios Parcial/nublado 35° 51% -
50 1:17.077 7 Médios Parcial/nublado 35° 51% -
51 1:17.498 7 Médios Parcial/nublado 35° 51% -
52 1:17.048 7 Médios Parcial/nublado 35° 51% -
53 1:26.234 8 Médios Parcial/nublado 35° 51% Pit
54 1:49.539 9 Médios Parcial/nublado 35° 51% -
55 1:18.336 10 Médios Parcial/nublado 35° 51% -
56 1:18.540 9 Médios Nublado 35° 51% -
57 1:17.678 9 Médios Nublado 35° 51% -
58 1:18.246 9 Médios Nublado 35° 51% -
59 1:18.319 8 Médios Nublado 35° 51% -
60 1:17.671 8 Médios Nublado 35° 51% -
61 1:18.268 8 Médios Nublado 35° 51% -
62 1:18.103 8 Médios Nublado 35° 51% -
63 1:17.935 8 Médios Nublado 34° 51% -
64 1:17.665 8 Médios Nublado 34° 51% -
65 1:17.813 8 Médios Nublado 34° 51% -
66 1:17.586 8 Médios Nublado 33° 51% -
67 1:17.709 8 Médios Nublado 33° 51% -
68 1:17.456 8 Médios Nublado 32° 51% -
69 1:17.789 8 Médios Nublado 31° 51% -
70 1:17.294 7 Médios Nublado 32° 51% -
71 1:17.175 7 Médios Nublado 32° 51% -
72 1:17.628 7 Médios Nublado 32° 51% -
73 1:17.117 7 Médios Nublado 32° 51% -
74 1:16.888 7 Médios Nublado 32° 51% -
75 1:17.110 7 Médios Nublado 33° 51% -
76 1:21.754 10 Médios Nublado 33° 51% Erro do Piloto
77 1:16.360 10 Médios Nublado 33° 51% -
78 1:16.998 9 Médios Nublado 33° 51% -
79 1:17.553 8 Médios Nublado 33° 51% -

Riscos usados
Riscos na partida
Ultrapassar onde for possível
Ultrapassagem Defesa Pista Livre e Seca Pista Livre e Chuva Avaria
30 0 40 40 40

Afinações usadas

Sessão ADiant ATras Mot Trav Caixa Susp Pneus
Q1 341 775 432 575 405 80 Médios
Q2 337 771 436 569 409 86 Médios
Corrida 337 771 436 569 409 86 Médios

Informação de voltas e desgaste

Nível das peças
Cha Mot ADiant ATras Carroç Later Refrig Caixa Trav Susp Elec
4 5 5 5 7 5 4 5 6 5 6
Desgaste das Peças (no início)
75% 39% 0% 0% 0% 57% 52% 0% 27% 0% 40%
Desgaste das Peças (no final)
96% 67% 17% 12% 11% 67% 69% 27% 55% 24% 45%

Combustível inicíal: 71 litros


Pit Razão Pit Condição pneus
Combustível restante Reabastecido até Tempos de pit
Paragem 1
(Volta 26) Não havia mais combustível 16% 0% 77 litros 22.917s
Paragem 2
(Volta 53) Não havia mais combustível 14% 0% 76 litros 21.911s

Condição dos pneus no final: 18%

Combustível restante no carro após final: 5 litros
avatar
Marco Duarte

Mensagens : 405
Data de inscrição : 17/11/2015
Idade : 41
Localização : Lisboa

Ver perfil do usuário

Voltar ao Topo Ir em baixo

Re: Analise da corrida

Mensagem por Jorge Frade em Qua Ago 17, 2016 12:11 pm

Informação de voltas e desgaste
Nível das peças
Cha Mot ADiant ATras Carroç Later Refrig Caixa Trav Susp Elec
4 4 4 4 4 6 6 4 4 4 5
Desgaste das Peças (no início)
63% 49% 18% 19% 0% 70% 63% 30% 40% 0% 54%
Desgaste das Peças (no final)
86% 79% 38% 32% 12% 80% 79% 60% 72% 26% 60%
Volta Tempo de volta Pos Pneus Tempo Temp Hum Eventos
0 - 25 Médios Nublado 34° 51% -
1 1:31.269 22 Médios Nublado 34° 51% -
2 1:19.059 21 Médios Nublado 34° 51% -
3 1:18.269 20 Médios Nublado 34° 51% -
4 1:18.548 20 Médios Nublado 34° 51% -
5 1:18.483 20 Médios Nublado 34° 51% -
6 1:18.594 20 Médios Nublado 34° 51% -
7 1:18.721 20 Médios Nublado 35° 51% -
8 1:18.864 20 Médios Nublado 36° 51% -
9 1:19.198 20 Médios Nublado 36° 51% -
10 1:18.951 20 Médios Nublado 36° 51% -
11 1:18.555 20 Médios Nublado 37° 51% -
12 1:18.206 19 Médios Nublado 37° 50% -
13 1:18.541 19 Médios Nublado 38° 50% -
14 1:18.310 19 Médios Nublado 38° 50% -
15 1:18.373 18 Médios Nublado 38° 50% -
16 1:19.046 18 Médios Nublado 37° 50% -
17 1:17.907 18 Médios Nublado 36° 50% -
18 1:18.836 18 Médios Nublado 35° 50% -
19 1:18.529 18 Médios Nublado 35° 50% -
20 1:18.711 17 Médios Nublado 35° 50% -
21 1:18.102 16 Médios Nublado 35° 50% -
22 1:17.810 14 Médios Nublado 35° 50% -
23 1:18.093 14 Médios Nublado 35° 50% -
24 1:18.194 13 Médios Nublado 35° 50% -
25 1:22.613 16 Médios Nublado 35° 50% Erro do Piloto
26 1:26.910 18 Médios Nublado 35° 51% Pit
27 1:51.128 25 Médios Nublado 35° 51% -
28 1:18.544 24 Médios Nublado 35° 51% -
29 1:18.496 23 Médios Nublado 35° 51% -
30 1:17.853 23 Médios Nublado 35° 51% -
31 1:19.409 23 Médios Nublado 34° 51% -
32 1:18.936 21 Médios Nublado 34° 51% -
33 1:18.208 20 Médios Nublado 33° 51% -
34 1:17.704 20 Médios Nublado 33° 51% -
35 1:18.580 20 Médios Nublado 33° 51% -
36 1:19.354 19 Médios Nublado 33° 51% -
37 1:19.273 19 Médios Nublado 33° 51% -
38 1:18.837 18 Médios Nublado 33° 51% -
39 1:18.752 18 Médios Nublado 33° 51% -
40 1:17.988 15 Médios Nublado 33° 51% -
41 1:21.985 16 Médios Nublado 33° 51% Erro do Piloto
42 1:17.612 16 Médios Parcial/nublado 33° 51% -
43 1:17.836 16 Médios Parcial/nublado 33° 51% -
44 1:18.477 16 Médios Parcial/nublado 33° 51% -
45 1:19.210 15 Médios Parcial/nublado 34° 51% -
46 1:18.442 13 Médios Parcial/nublado 35° 51% -
47 1:17.294 12 Médios Parcial/nublado 35° 51% -
48 1:17.413 12 Médios Parcial/nublado 35° 51% -
49 1:17.390 12 Médios Parcial/nublado 35° 51% -
50 1:17.268 12 Médios Parcial/nublado 35° 51% -
51 1:17.359 12 Médios Parcial/nublado 35° 51% -
52 1:26.131 14 Médios Parcial/nublado 35° 51% Pit
53 1:50.137 19 Médios Parcial/nublado 35° 51% -
54 1:18.555 17 Médios Parcial/nublado 35° 51% -
55 1:18.872 16 Médios Parcial/nublado 35° 51% -
56 1:17.893 15 Médios Nublado 35° 51% -
57 1:18.215 14 Médios Nublado 35° 51% -
58 1:17.736 14 Médios Nublado 35° 51% -
59 1:18.360 13 Médios Nublado 35° 51% -
60 1:17.692 13 Médios Nublado 35° 51% -
61 1:17.650 13 Médios Nublado 35° 51% -
62 1:17.978 13 Médios Nublado 35° 51% -
63 1:17.846 13 Médios Nublado 34° 51% -
64 1:17.688 13 Médios Nublado 34° 51% -
65 1:18.100 13 Médios Nublado 34° 51% -
66 1:17.920 13 Médios Nublado 33° 51% -
67 1:18.079 13 Médios Nublado 33° 51% -
68 1:18.089 13 Médios Nublado 32° 51% -
69 1:18.000 13 Médios Nublado 31° 51% -
70 1:17.531 12 Médios Nublado 32° 51% -
71 1:17.359 12 Médios Nublado 32° 51% -
72 1:17.940 12 Médios Nublado 32° 51% -
73 1:18.324 12 Médios Nublado 32° 51% -
74 1:18.297 12 Médios Nublado 32° 51% -
75 1:17.970 12 Médios Nublado 33° 51% -
76 1:17.770 12 Médios Nublado 33° 51% -
77 1:18.029 12 Médios Nublado 33° 51% -
78 1:26.390 12 Médios Nublado 33° 51% Pit
79 1:50.534 16 Médios Nublado 33° 51% -

Combustível inicíal: 77 litros

Pit Razão Pit Condição pneus
Combustível restante Reabastecido até Tempos de pit
Paragem 1
(Volta 26) Não havia mais combustível 12% 1% 74 litros 23.578s
Paragem 2
(Volta 52) Não havia mais combustível 14% 1% 74 litros 22.777s
Paragem 3
(Volta 78) Não havia mais combustível 14% 1% 74 litros 23.164s

Condição dos pneus no final: 97%

Combustível restante no carro após final: 71 litros
avatar
Jorge Frade
Admin

Mensagens : 996
Data de inscrição : 22/09/2014

Ver perfil do usuário http://frteam.foruns.com.pt

Voltar ao Topo Ir em baixo

Re: Analise da corrida

Mensagem por Henrique em Dom Ago 21, 2016 3:37 pm

Nível das peças
Cha Mot ADiant ATras Carroç Later Refrig Caixa Trav Susp Elec
6 7 5 5 6 6 6 6 7 5 6
Desgaste das Peças (no início)
0% 0% 0% 0% 44% 61% 53% 22% 0% 67% 41%
Desgaste das Peças (no final)
22% 34% 20% 13% 55% 71% 70% 51% 34% 94% 45%
Volta Tempo de volta Pos Pneus Tempo Temp Hum Eventos
0 - 3 Médios Nublado 34° 51% -
1 1:20.797 2 Médios Nublado 34° 51% -
2 1:16.649 2 Médios Nublado 34° 51% -
3 1:15.656 2 Médios Nublado 34° 51% -
4 1:15.494 2 Médios Nublado 34° 51% -
5 1:15.805 1 Médios Nublado 34° 51% -
6 1:15.889 1 Médios Nublado 34° 51% -
7 1:15.961 1 Médios Nublado 35° 51% -
8 1:15.958 1 Médios Nublado 36° 51% -
9 1:15.919 1 Médios Nublado 36° 51% -
10 1:15.789 1 Médios Nublado 36° 51% -
11 1:15.839 1 Médios Nublado 37° 51% -
12 1:15.701 1 Médios Nublado 37° 50% -
13 1:15.735 1 Médios Nublado 38° 50% -
14 1:15.723 1 Médios Nublado 38° 50% -
15 1:15.625 1 Médios Nublado 38° 50% -
16 1:15.635 1 Médios Nublado 37° 50% -
17 1:15.804 1 Médios Nublado 36° 50% -
18 1:15.494 1 Médios Nublado 35° 50% -
19 1:15.583 1 Médios Nublado 35° 50% -
20 1:15.437 1 Médios Nublado 35° 50% -
21 1:15.521 1 Médios Nublado 35° 50% -
22 1:24.287 1 Médios Nublado 35° 50% Pit
23 1:49.254 4 Médios Nublado 35° 50% -
24 1:16.577 4 Médios Nublado 35° 50% -
25 1:16.271 4 Médios Nublado 35° 50% -
26 1:16.013 4 Médios Nublado 35° 51% -
27 1:16.034 3 Médios Nublado 35° 51% -
28 1:15.930 1 Médios Nublado 35° 51% -
29 1:16.075 1 Médios Nublado 35° 51% -
30 1:14.958 1 Médios Nublado 35° 51% -
31 1:14.713 1 Médios Nublado 34° 51% -
32 1:14.838 1 Médios Nublado 34° 51% -
33 1:15.868 1 Médios Nublado 33° 51% -
34 1:16.011 1 Médios Nublado 33° 51% -
35 1:15.755 1 Médios Nublado 33° 51% -
36 1:15.648 1 Médios Nublado 33° 51% -
37 1:15.630 1 Médios Nublado 33° 51% -
38 1:15.669 1 Médios Nublado 33° 51% -
39 1:15.710 1 Médios Nublado 33° 51% -
40 1:15.503 1 Médios Nublado 33° 51% -
41 1:15.492 1 Médios Nublado 33° 51% -
42 1:15.432 1 Médios Parcial/nublado 33° 51% -
43 1:15.379 1 Médios Parcial/nublado 33° 51% -
44 1:15.981 1 Médios Parcial/nublado 33° 51% -
45 1:24.714 1 Médios Parcial/nublado 34° 51% Pit
46 1:52.376 4 Médios Parcial/nublado 35° 51% -
47 1:16.664 4 Médios Parcial/nublado 35° 51% -
48 1:16.587 3 Médios Parcial/nublado 35° 51% -
49 1:16.098 3 Médios Parcial/nublado 35° 51% -
50 1:16.065 3 Médios Parcial/nublado 35° 51% -
51 1:15.889 3 Médios Parcial/nublado 35° 51% -
52 1:16.018 3 Médios Parcial/nublado 35° 51% -
53 1:16.133 3 Médios Parcial/nublado 35° 51% -
54 1:15.815 3 Médios Parcial/nublado 35° 51% -
55 1:16.033 2 Médios Parcial/nublado 35° 51% -
56 1:15.698 1 Médios Nublado 35° 51% -
57 1:15.664 1 Médios Nublado 35° 51% -
58 1:15.721 1 Médios Nublado 35° 51% -
59 1:15.782 1 Médios Nublado 35° 51% -
60 1:15.550 1 Médios Nublado 35° 51% -
61 1:15.521 1 Médios Nublado 35° 51% -
62 1:15.722 1 Médios Nublado 35° 51% -
63 1:15.620 1 Médios Nublado 34° 51% -
64 1:15.549 1 Médios Nublado 34° 51% -
65 1:15.645 1 Médios Nublado 34° 51% -
66 1:15.580 1 Médios Nublado 33° 51% -
67 1:15.945 1 Médios Nublado 33° 51% -
68 1:16.414 1 Médios Nublado 32° 51% -
69 1:25.517 1 Médios Nublado 31° 51% Pit
70 1:50.029 2 Médios Nublado 32° 51% -
71 1:16.728 2 Médios Nublado 32° 51% -
72 1:16.317 2 Médios Nublado 32° 51% -
73 1:16.093 2 Médios Nublado 32° 51% -
74 1:16.067 2 Médios Nublado 32° 51% -
75 1:15.943 2 Médios Nublado 33° 51% -
76 1:15.126 2 Médios Nublado 33° 51% -
77 1:14.837 2 Médios Nublado 33° 51% -
78 1:14.749 2 Médios Nublado 33° 51% -
79 1:15.873 2 Médios Nublado 33° 51% -


Informação da corrida
Voltas
Qualificação 1 Qualificação 2
1:16.716s 1:17.920s

Afinações usadas
Sessão ADiant ATras Mot Trav Caixa Susp Pneus
Q1 398 738 555 547 398 90 Médios
Q2 398 738 555 547 398 90 Médios
Corrida 398 738 555 547 398 90 Médios

Riscos usados
Riscos na partida
Ultrapassar onde for possível
Ultrapassagem Defesa Pista Livre e Seca Pista Livre e Chuva Avaria
40 20 100 25 25

Atributos do piloto
Nome Piloto VG Conc Tal Agre Exper C.Téc Res Car Motiv Rep Peso Id
Roberto Marciello 130 214 164 0 178 91 71 68 195 0 60 34

Posições
Início Final
3 2
Carácter do carro
Potência Manobrabilidade Aceleração
87 77 79


Combustível inicíal: 58 litros

Pit Razão Pit Condição pneus
Combustível restante Reabastecido até Tempos de pit
Paragem 1
(Volta 22) Não havia mais combustível 16% 1% 60 litros 23.669s
Paragem 2
(Volta 45) Não havia mais combustível 13% 0% 62 litros 26.824s
Paragem 3
(Volta 69) Não havia mais combustível 9% 1% 65 litros 24.650s

Condição dos pneus no final: 63%

Combustível restante no carro após final: 38 litros

Henrique

Mensagens : 122
Data de inscrição : 25/05/2015

Ver perfil do usuário

Voltar ao Topo Ir em baixo

Re: Analise da corrida

Mensagem por Conteúdo patrocinado


Conteúdo patrocinado


Voltar ao Topo Ir em baixo

Ver o tópico anterior Ver o tópico seguinte Voltar ao Topo

- Tópicos similares

Novo Tópico   Responder ao tópico

 :: S54

 
Permissão deste fórum:
Você pode responder aos tópicos neste fórum